Regional Weather Roundup
Issued by NWS

Home | Current Version | Previous Version | Text Only | Print | Product List | Glossary Off
Versions: 1 2 3 4 5 6 7 8 9 10 11 12 13 14 15 16 17 18 19 20 21 22 23 24 25 26 27 28 29 30 31 32 33 34 35 36 37 38 39 40 41 42 43 44 45 46 47 48 49

000
ASUS45 KBOU 281407
RWRCO

WEATHER ROUNDUP FOR COLORADO
NATIONAL WEATHER SERVICE DENVER/BOULDER CO
800 AM MDT MON JUL 28 2014

NOTE: "FAIR" INDICATES FEW OR NO CLOUDS BELOW 12000 FEET WITH NO
SIGNIFICANT WEATHER AND/OR OBSTRUCTIONS TO VISIBILITY.

COZ001>005-013-030-031-281500-
...NORTHWEST COLORADO...

CITY           SKY/WX    TMP DP  RH WIND       PRES   REMARKS
CRAIG          SUNNY     54  49  83 CALM      30.40R
HAYDEN         SUNNY     63  45  51 E10       30.42S
MEEKER         PTSUNNY   68  47  46 CALM      30.41R
MOUNT WERNER   NOT AVBL
STEAMBOAT SPGS SUNNY     59  48  67 CALM      30.45R
WALDEN         SUNNY     52  45  76 SE5       30.54R
$$

COZ006>008-011-281500-
...WEST CENTRAL VALLEYS...

CITY           SKY/WX    TMP DP  RH WIND       PRES   REMARKS
GRAND JUNCTION PTSUNNY   73  51  46 SE3       30.31R
MONTROSE       CLOUDY    70  51  51 CALM      30.40S
EAGLE          PTSUNNY   57  50  77 CALM      30.47R
RIFLE          PTSUNNY   67  50  54 NE3       30.37R
DELTA          CLOUDY    73  53  50 E5        30.36S
NUCLA          CLOUDY    66  52  59 SE5       30.44R
$$

COZ017>023-064>068-281500-
...SOUTHWEST COLORADO...

CITY           SKY/WX    TMP DP  RH WIND       PRES   REMARKS
DURANGO        MOSUNNY   60  57  89 SW3       30.45R
CORTEZ         CLOUDY    65  59  81 CALM      30.41R
PAGOSA SPRINGS MOSUNNY   60  52  74 CALM      30.54R
TELLURIDE      CLOUDY    57  48  72 CALM      30.60R
WOLF CREEK PAS NOT AVBL
$$

COZ009-010-012-014-032>034-037-058>063-281500-
...CENTRAL COLORADO...

CITY           SKY/WX    TMP DP  RH WIND       PRES   REMARKS
ASPEN          PTSUNNY   60  47  61 S5        30.52R
BUENA VISTA    NOT AVBL
COPPER MTN     MOSUNNY   54  39  58 W13       30.82R
BERTHOUD PASS  FAIR      45  32  61 NW10      30.85S
COTTONWOOD PAS CLOUDY    59  50  72 CALM      30.66S
GUNNISON       PTSUNNY   57  48  72 CALM      30.56R
KREMMLING      MOSUNNY   59  45  58 CALM      30.52S
LEADVILLE      MOSUNNY   51  45  79 N5        30.66S
MONARCH PASS   FOG       45  43  93 SW22      30.89S VSB<1/4
SALIDA         PTSUNNY  N/A N/A N/A CALM      30.59R
SUNLIGHT       CLOUDY    55  46  71 CALM      30.74R
WILKERSON PASS NOT AVBL
$$

COZ069>075-281500-
...SAN LUIS VALLEY/SANGRE DE CRISTO MOUNTAINS...

CITY           SKY/WX    TMP DP  RH WIND       PRES   REMARKS
ALAMOSA        CLOUDY    59  54  83 NW3       30.53R
LA VETA PASS   CLOUDY    50  46  87 SW13G23   30.66R
SAGUACHE       PTSUNNY   59  54  82 W3        30.57R
$$

COZ035-036-038>040-281500-
...NORTHERN COLORADO FRONT RANGE...

CITY           SKY/WX    TMP DP  RH WIND       PRES   REMARKS
DENVER INTL AP MOSUNNY   66  58  75 SW8       30.35R
DMNS CITY PARK   N/A     68  59  72 NW5       30.35S
AURORA         MOSUNNY   65  58  78 W8        30.38R
FRONT RANGE AP NOT AVBL
ERIE MUNI ARPT MOSUNNY   65  60  82 N5        30.35R
BOULDER MUN AP MOSUNNY   66  59  77 CALM      30.35R
CENTENNIAL     PTSUNNY   65  57  75 NW8       30.38S
BROOMFIELD     PTSUNNY   66  57  72 CALM      30.38R
FORT COLLINS   MOSUNNY   64  59  82 N9        30.36R
LONGMONT       MOSUNNY   70  59  66 NE5       30.36R
$$

COZ041-046-047-076>085-087-088-281500-
...PIKES PEAK/PALMER DIVIDE AND SOUTHERN FOOTHILLS...

CITY           SKY/WX    TMP DP  RH WIND       PRES   REMARKS
COLO. SPRINGS  PTSUNNY   61  58  90 CALM      30.43R
A. F. ACADEMY  CLOUDY    59  59  97 VRB3      30.44R
ELLICOTT       SUNNY     64  60  87 SE6       30.41R
FALCON         CLOUDY    59  59  99 CALM      30.47R FOG
FORT CARSON    CLOUDY    61  60  99 VRB2      30.40S
LIMON          SUNNY     64  60  87 S9        30.39R
MONUMENT HILL  SUNNY     63  54  72 S9        30.45R
TRINIDAD       CLOUDY    63  58  83 CALM      30.40R
$$

COZ042>045-048>051-090-091-281500-
...NORTHEAST COLORADO...

CITY           SKY/WX    TMP DP  RH WIND       PRES   REMARKS
GREELEY ARPT   MOSUNNY   64  55  72 E7        30.33S
AKRON          SUNNY     72  55  55 S10       30.35R
BURLINGTON     PTSUNNY   66  61  84 S8        30.36R
WRAY             N/A     68  51  55 E6        30.33R
STERLING       PTSUNNY   72  59  64 CALM      30.31R
HOLYOKE        SUNNY     66  54  63 E9        30.33S
FORT MORGAN    SUNNY     68  56  65 SE10      30.34R
$$

COZ086-089-092>099-281500-
...SOUTHEAST COLORADO...

CITY           SKY/WX    TMP DP  RH WIND       PRES   REMARKS
PUEBLO         MOSUNNY   66  63  90 CALM      30.34R
LA JUNTA       CLOUDY    68  66  93 E10       30.33R
LAMAR          CLOUDY    68  62  81 S9        30.30R
SPRINGFIELD      N/A     62  61  96 S8        30.37S
$$


USA.gov is the U.S. government's official web portal to all federal, state and local government web resources and services.